Regional Weather Roundup
Issued by NWS

Home | Current Version | Previous Version | Graphics & Text | Print | Product List | Glossary On
Versions: 1 2 3 4 5 6 7 8 9 10 11 12 13 14 15 16 17 18 19 20 21 22 23 24 25 26 27 28 29 30 31 32 33 34 35 36 37 38 39 40 41 42 43 44 45 46 47 48 49 50
000
ASUS45 KTFX 230619
RWRMT
MONTANA HOURLY WEATHER ROUNDUP
NATIONAL WEATHER SERVICE GREAT FALLS MT
1219 AM MDT SAT AUG 23 2014

NOTE: "FAIR" INDICATES FEW OR NO CLOUDS BELOW 12000 FEET WITH NO
SIGNIFICANT WEATHER AND/OR OBSTRUCTIONS TO VISIBILITY.

* THESE STATIONS ARE NOT UNDER NWS QUALITY CONTROL. THEY DO NOT
   REPORT WEATHER SUCH AS PRECIPITATION OR FOG.

MTZ001>007-043-230700-
WEST OF THE DIVIDE
CITY           SKY/WX    TMP DP  RH WIND       PRES   REMARKS
KALISPELL      CLOUDY    55  39  55 N12       30.17R
MISSOULA       LGT RAIN  59  48  67 NE5       30.11R
BUTTE          LGT RAIN  48  46  93 CALM      30.13S
MULLAN PASS    MOCLDY    45  43  93 VRB3      30.17S
* ESSEX        N/A       50  42  74 S3         N/A
* LINCOLN      N/A       50  44  80 NE10G16    N/A
* LOOKOUT PASS N/A       52  45  77 E1G9       N/A
* POLSON       N/A       56  41  57 N3G10      N/A
* RONAN APT    CLOUDY    57  45  64 N5         N/A
* SEELEY LAKE  N/A       52  49  90 SE2        N/A
* THOMP F APT  CLOUDY    46  44  93 N4         N/A
$$

MTZ008-052>055-230700-
SOUTHWEST MONTANA
CITY           SKY/WX    TMP DP  RH WIND       PRES   REMARKS
BOZEMAN        CLOUDY    54  52  93 W5        30.08R
DILLON         LGT RAIN  52  48  86 N7        30.08R
W YELLOWSTONE  CLOUDY    46  45  96 CALM      30.10F
* THREE FORKS  CLOUDY    54  34  47 N/A        N/A
* BOULDER HILL N/A       46  43  89 N12        N/A
* MONIDA PASS  N/A       45  45 100 NW2        N/A
* RAYNOLDS PAS N/A       46  45  96 N9         N/A
* WHITEHALL    N/A       53  51  93 SE4        N/A
* WISE RIVER   N/A       47  45  93 SW2        N/A
$$

MTZ009>010-012-014-046-048-049-054-230700-
EAST SLOPES AND CENTRAL MONTANA
CITY           SKY/WX    TMP DP  RH WIND       PRES   REMARKS
CUT BANK       CLOUDY    46  45  96 N20       30.23S
GREAT FALLS    CLOUDY    48  48 100 NW10      30.14S
HELENA         LGT RAIN  52  48  86 NW12      30.12S
MALMSTROM AFB  CLOUDY    50  50 100 NW13      30.15S
* CONRAD       CLOUDY    48  48 100 NW14       N/A
* DEARBORN     N/A       51  47  86 NE4G10     N/A
* EAST GLACIER N/A       42  41  96 NE12G21    N/A
* MONARCH      N/A       49  46  89 VRB12      N/A
* PENDROY      N/A       45  45 100 N19G24     N/A
* SAINT MARY   N/A       43  42  96 N7G14      N/A
* SWEET GRASS  N/A       46  46 100 N18G24     N/A
* WHITE SULPH  N/A       50  49  96 NW7G14     N/A
$$

MTZ011-013-016-021-035-040-045-047-050-051-230700-
NORTH CENTRAL MONTANA
CITY           SKY/WX    TMP DP  RH WIND       PRES   REMARKS
HAVRE          CLOUDY    55  54  96 NE14      30.13F
LEWISTOWN      RAIN      55  54  96 N3        30.09S
* FORT BENTON  CLOUDY    57  55  93 N7        30.11F
* CHESTER      N/A       54  52  93 E11G19     N/A
* DENTON       N/A       55  54  96 NE11       N/A
* GEYSER       N/A       54  52  93 SW6        N/A
* JUDITH GAP   N/A       52  52 100 NW15G20    N/A
* LOMA         N/A       56  55  96 N10        N/A
$$

MTZ017>020-022>027-061-062-230700-
NORTHEAST MONTANA
CITY           SKY/WX    TMP DP  RH WIND       PRES   REMARKS
GLASGOW        CLOUDY    63  54  73 NE18      30.10F
GLENDIVE       CLOUDY    61  61 100 NE17      30.05F
JORDAN         CLOUDY    61  57  87 NE18G24   30.05F
SIDNEY         CLOUDY    61  59  93 NE12      30.10F
WOLF POINT     CLOUDY    64  54  70 E14       30.10S
* BEAVER HILL  N/A       61  59  93 NE18G28    N/A
* CIRCLE       N/A       61  57  87 E9G18      N/A
* LINDSAY DVD  N/A       58  57  96 NE17G24    N/A
* SACO         N/A       61  52  72 NE14G19    N/A
$$

MTZ028>042-056>058-230700-
SOUTHCENTRAL AND SOUTHEAST MONTANA
CITY           SKY/WX    TMP DP  RH WIND       PRES   REMARKS
BAKER          CLOUDY    64  63  97 E16       30.03F
BILLINGS       LGT RAIN  59  57  93 NE8       29.99F
LIVINGSTON     LGT RAIN  54  52  93 E5        30.07S
MILES CITY     LGT RAIN  63  61  93 NE14      29.98F
* LAUREL APT   CLOUDY    57  55  93 N7         N/A
* ROUNDUP APT  CLOUDY    59  55  87 N/A        N/A
* ALZADA       N/A       62  61  97 E2         N/A
* HYSHAM       N/A       62  58  87 E12        N/A
* LAME DEER    N/A       59  58  97 E7G15      N/A
* REED POINT   N/A       57  55  93 SW6        N/A
* ROSCOE HILL  N/A       52  48  86 SW2        N/A
$$

REGIONAL REPORTS...DAKOTAS
CITY           SKY/WX    TMP DP  RH WIND       PRES   REMARKS
WILLISTON      CLOUDY    63  55  75 NE13      30.14S
DICKINSON      CLOUDY    63  61  93 NE13      30.06F
BEACH          FOG       61  61 100 E17G23    30.06F VSB 3
CROSBY         CLOUDY    57  57 100 E13G20    30.19R
TIOGA          CLOUDY    57  57 100 E14G20    30.18S
WATFORD CITY   CLOUDY    61  57  87 E15G20    30.09F
BISMARCK       CLOUDY    64  63  97 NE14      30.08F
GRAND FORKS    CLOUDY    63  61  93 N13       30.09S
FARGO          CLOUDY    66  63  90 N14       30.05F
BUFFALO SD     CLOUDY    64  61  90 E18       29.94F
RAPID CITY     CLOUDY    66  63  90 E10       29.97F
$$

REGIONAL REPORTS...WYOMING/IDAHO/WASHINGTON
CITY           SKY/WX    TMP DP  RH WIND       PRES   REMARKS
GILLETTE       CLOUDY    61  59  93 E13       29.99F
SHERIDAN       CLOUDY    59  57  93 CALM      29.99F
CODY           CLOUDY    55  54  96 N6        30.03F
YELLOWSTONE LA CLOUDY    45  41  86 W3        30.16R
SALMON         CLOUDY    54  48  80 CALM      30.05S
MULLAN PASS    MOCLDY    45  43  93 VRB3      30.17S
SAND POINT     CLOUDY    61  43  52 NE20G25   30.13R
SPOKANE        MOCLDY    63  48  58 NE8       30.09R
$$

REGIONAL REPORTS...ALBERTA
CITY           SKY/WX    TMP DP  RH WIND       PRES   REMARKS
CALGARY        CLOUDY    50  45  83 NE5       30.35S
LETHBRIDGE     LGT RAIN  48  46  93 N10G17    30.31S
MEDICINE HAT   LGT RAIN  48  48 100 N12       30.27F
EDMONTON       MOCLDY    39  36  89 E6        30.37S WCI  35
WATERTON GATE  N/A       45  43  93 NW2        N/A
CARDSTON       N/A       45  45 100 N9         N/A
$$

REGIONAL REPORTS...SASKATCHEWAN
CITY           SKY/WX    TMP DP  RH WIND       PRES   REMARKS
SWIFT CURRENT  LGT RAIN  55  54  96 E10       30.23S
REGINA         CLOUDY    57  52  83 NE10      30.23S
VAL MARIE      N/A       55  52  90 NE10       N/A
ASSINIBOIA     N/A       55  50  83 NE12       N/A
CORONACH       N/A       59  54  84 NE12       N/A

$$




USA.gov is the U.S. government's official web portal to all federal, state and local government web resources and services.